Change the Weather History Date:

Friday, April 19, 2013

  Actual Average (KTAD) Record (KTAD)
Temperature  
Mean Temperature 36 °F 51 °F  
Max Temperature 57 °F 66 °F 85 °F (1962)
Min Temperature 16 °F 35 °F 18 °F (1953)
Degree Days  
Heating Degree Days 28 14  
Month to date heating degree days 322  
Since 1 July heating degree days 5151  
Cooling Degree Days 0 0  
Month to date cooling degree days 0  
Year to date cooling degree days 0  
Moisture  
Dew Point 13 °F    
Average Humidity 47    
Maximum Humidity 88    
Minimum Humidity 14    
Precipitation  
Precipitation 0.00 in 0.04 in 0.61 in (1966)
Month to date precipitation 0.67  
Year to date precipitation 2.45  
Sea Level Pressure  
Sea Level Pressure 30.09 in    
Wind  
Wind Speed 5 mph (South)    
Max Wind Speed 18 mph    
Max Gust Speed 29 mph    
Visibility 10 miles    
Events      
T = Trace of Precipitation, MM = Missing Value Source: NWS Daily Summary

Daily Weather History Graph

Daily Weather History Graph

Search for Another Location

Airport or City:

Trip Planner

Search our weather history database for the weather conditions in past years. The results will help you decide how hot, cold, wet, or windy it might be!

Date:

Astronomy

Apr. 19, 2013 Rise Set
Actual Time 6:18 AM MDT 7:36 PM MDT
Civil Twilight 5:51 AM MDT 8:03 PM MDT
Nautical Twilight 5:19 AM MDT 8:35 PM MDT
Astronomical Twilight 4:45 AM MDT 9:09 PM MDT
Moon 1:32 PM MDT (4/19) 2:25 AM MDT (4/19)
Length of Visible Light 14h 11m
Length of Day
13h 17m
Waxing Gibbous, 62% of the Moon is Illuminated
Apr 19
Waxing Gibbous
Apr 25
Full
May 2
Last Quarter
May 9
New
May 17
First Quarter

Hourly Weather History & Observations

Time (MDT) Temp. Windchill Dew Point Humidity Pressure Visibility Wind Dir Wind Speed Gust Speed Precip Events Conditions
12:53 AM 23.0 °F - 19.0 °F 85% 30.25 in 10.0 mi Calm Calm - N/A   Clear
1:53 AM 21.9 °F 17.2 °F 18.0 °F 85% 30.25 in 10.0 mi East 3.5 mph - N/A   Clear
2:53 AM 19.0 °F - 16.0 °F 88% 30.25 in 10.0 mi Calm Calm - N/A   Clear
3:53 AM 19.0 °F - 16.0 °F 88% 30.25 in 10.0 mi Calm Calm - N/A   Clear
4:53 AM 16.0 °F 8.8 °F 12.0 °F 84% 30.27 in 10.0 mi ENE 4.6 mph - N/A   Clear
5:53 AM 17.1 °F 10.0 °F 12.9 °F 84% 30.27 in 10.0 mi NNE 4.6 mph - N/A   Clear
6:53 AM 17.1 °F 10.0 °F 12.9 °F 84% 30.28 in 10.0 mi ENE 4.6 mph - N/A   Clear
7:53 AM 21.9 °F - 16.0 °F 78% 30.27 in 10.0 mi Calm Calm - N/A   Clear
8:53 AM 27.0 °F 23.0 °F 19.9 °F 75% 30.25 in 10.0 mi ENE 3.5 mph - N/A   Clear
9:53 AM 32.0 °F - 16.0 °F 52% 30.22 in 10.0 mi Calm Calm - N/A   Clear
10:53 AM 36.0 °F 31.1 °F 14.0 °F 41% 30.20 in 10.0 mi SW 5.8 mph - N/A   Clear
11:53 AM 43.0 °F 37.7 °F 15.1 °F 32% 30.14 in 10.0 mi SSW 9.2 mph 16.1 mph N/A   Clear
12:53 PM 46.9 °F - 10.9 °F 23% 30.10 in 10.0 mi South 4.6 mph - N/A   Clear
1:53 PM 50.0 °F - 14.0 °F 24% 30.05 in 10.0 mi South 9.2 mph - N/A   Clear
2:53 PM 53.1 °F - 10.9 °F 19% 30.02 in 10.0 mi SSW 6.9 mph - N/A   Clear
3:53 PM 57.0 °F - 10.9 °F 16% 29.96 in 10.0 mi South 15.0 mph 26.5 mph N/A   Clear
4:53 PM 57.9 °F - 9.0 °F 14% 29.94 in 10.0 mi South 17.3 mph 20.7 mph N/A   Clear
5:53 PM 57.0 °F - 7.0 °F 14% 29.93 in 10.0 mi SSE 13.8 mph 20.7 mph N/A   Clear
6:53 PM 55.0 °F - 10.0 °F 17% 29.91 in 10.0 mi SE 11.5 mph - N/A   Clear
7:53 PM 48.0 °F - 12.0 °F 24% 29.92 in 10.0 mi South 6.9 mph - N/A   Clear
8:53 PM 48.9 °F - 10.9 °F 22% 29.92 in 10.0 mi West 18.4 mph 26.5 mph N/A   Scattered Clouds
9:53 PM 51.1 °F - 10.0 °F 19% 29.88 in 10.0 mi West 13.8 mph - N/A   Clear
10:53 PM 46.0 °F 44.8 °F 14.0 °F 28% 29.89 in 10.0 mi Variable 3.5 mph - N/A   Partly Cloudy
11:53 PM 48.0 °F - 14.0 °F 26% 29.84 in 10.0 mi West 18.4 mph 28.8 mph N/A   Clear